Cosmos 1850 Rocket - Orbit

View from above orbital plane
View from above orbital plane
View from above satellite
View from above satellite

Ground track
Ground track

The orbit data is extracted from the following two-line orbital elements,

1 18096U 87049B   13142.82045837  .00000189  00000-0  74075-4 0  2213
2 18096 074.0441 074.2516 0023108 251.7036 167.6354 14.35853522358612
Epoch (UTC): 22 May 2013 19:41:27
Eccentricity: 0.0023108
inclination: 74.0441°
perigee height: 756 km
apogee height: 789 km
right ascension of ascending node: 74.2516°
argument of perigee: 251.7036°
revolutions per day: 14.35853522
mean anomaly at epoch: 167.6354°
orbit number at epoch: 35861

The dashed part of the orbit path shows where the satellite is in the earth's shadow,  

Developed and maintained by Chris Peat, Heavens-Above GmbH. Please read the updated FAQ before sending e-mail. Imprint. DLR